Notices

What's New in latest Release from April 7th, 2021:

- Updated Glossary, including Speed of Maximum Gust, and Total Hourly Precipitation

- Updated national and regional climate services offices contacts and prices information

- Addition of station inventory lists for 1981-2010, 1971-2000, and 1961-1990 Normals.

If you haven't already, please take our survey and provide feedback about our website: https://eccc.sondage-survey.ca/f/LanguageSelection.aspx?s=442ca660-fcf1-47c0-95a9-59707d6fd709

Hourly Data Report for October 23, 2006

TORONTO CITY
ONTARIO

43°40'00.000" N
79°24'00.000" W
112.50 m
6158355
71508
XTO

Download Data

Hourly Data (October 2006)
Hourly Data Report for October 23, 2006
TIME
LST
Temp Definition
°C
Dew Point Definition
°C
Rel Hum Definition
%
Precip. Amount Definition
mm

Wind Dir Definition
10's deg

Wind Spd Definition
km/h
Visibility Definition
km
Stn Press Definition
kPa
Hmdx Definition


Wind Chill Definition


Weather Definition


00:00 7.1 4.8 85   LegendMM LegendMM   99.07     LegendNANA
01:00 6.1 2.7 79   LegendMM LegendMM   99.11     LegendNANA
02:00 5.7 2.4 79   LegendMM LegendMM   99.15     LegendNANA
03:00 5.1 2.7 84   LegendMM LegendMM   99.19     LegendNANA
04:00 4.9 2.6 85   LegendMM LegendMM   99.23     LegendNANA
05:00 5.0 1.7 79   LegendMM LegendMM   99.26     LegendNANA
06:00 4.7 1.0 77   LegendMM LegendMM   99.32     LegendNANA
07:00 4.4 0.7 77   LegendMM LegendMM   99.36     LegendNANA
08:00 5.2 0.8 73   LegendMM LegendMM   99.39     LegendNANA
09:00 6.0 1.1 71   LegendMM LegendMM   99.40     LegendNANA
10:00 6.8 0.5 64   LegendMM LegendMM   99.41     LegendNANA
11:00 8.1 0.8 60   LegendMM LegendMM   99.39     LegendNANA
12:00 8.4 -0.1 55   LegendMM LegendMM   99.37     LegendNANA
13:00 8.4 0.5 57   LegendMM LegendMM   99.35     LegendNANA
14:00 7.4 0.4 61   LegendMM LegendMM   99.36     LegendNANA
15:00 8.0 1.3 63   LegendMM LegendMM   99.37     LegendNANA
16:00 6.2 0.9 69   LegendMM LegendMM   99.42     LegendNANA
17:00 6.2 0.7 68   LegendMM LegendMM   99.42     LegendNANA
18:00 5.1 0.8 74   LegendMM LegendMM   99.47     LegendNANA
19:00 4.8 0.7 75   LegendMM LegendMM   99.50     LegendNANA
20:00 4.3 0.6 77   LegendMM LegendMM   99.50     LegendNANA
21:00 4.1 0.9 80   LegendMM LegendMM   99.50     LegendNANA
22:00 3.6 0.8 82   LegendMM LegendMM   99.46     LegendNANA
23:00 3.5 0.9 83   LegendMM LegendMM   99.41     LegendNANA

Notes on Data Quality.

Legend

  • E = Estimated
  • M = Missing
  • NA = Not Available*
  • [empty] = Indicates an unobserved value
Date modified: